INTELSAT 28 (IS-28)

Last updated on Sun Mar 15 2026 00:02:53 GMT+0000 (Coordinated Universal Time)

1 37392U 11016A 26073.41961754 -.00000225 00000+0 00000+0 0 9996 2 37392 1.5596 83.8361 0004605 273.2966 294.2661 1.00272010 52337
UTC large
Height (km)
Speed (km/s)
/
Latitude / Longitude
Inclination (degrees)
Orbital Period (minutes)
Azimuth
Elevation
Range (km)
Doppler Factor

Next 0 passes for location: London (51.5072 / 0.1276)

Sorry there are no passes over London.